FW3806 Weather Reports


Display with metric or nautical units.
time (UTC)temp
F
wind
direction
speed
MPH
gust
MPH
rain 1hr
in
rain 24hr
in
rain mn
in
humidity
%
barometer
mb
20260507234534 92 131 0.0 9.0 0.00 0.00 0.00 9 1007.7
20260507233032 92 227 0.0 6.0 0.00 0.00 0.00 9 1007.9
20260507231528 90 117 0.0 7.0 0.00 0.00 0.00 9 1008.1
20260507230028 91 142 2.0 8.0 0.00 0.00 0.00 9 1008.3
20260507224525 90 134 3.0 8.0 0.00 0.00 0.00 10 1008.4
20260507223023 90 94 4.0 8.0 0.00 0.00 0.00 10 1008.7
20260507221521 89 217 2.0 6.0 0.00 0.00 0.00 10 1009.1
20260507220017 88 96 1.0 6.0 0.00 0.00 0.00 10 1009.6
20260507214515 89 143 4.0 8.0 0.00 0.00 0.00 10 1009.9
20260507213018 88 356 2.0 4.0 0.00 0.00 0.00 10 1010.3
20260507211511 89 144 0.0 3.0 0.00 0.00 0.00 10 1010.6
20260507210007 88 244 0.0 8.0 0.00 0.00 0.00 10 1011.0
20260507204505 86 303 2.0 6.0 0.00 0.00 0.00 11 1011.3
20260507203001 87 164 1.0 6.0 0.00 0.00 0.00 10 1011.5
20260507201559 87 164 2.0 7.0 0.00 0.00 0.00 10 1011.8
20260507200056 86 99 3.0 6.0 0.00 0.00 0.00 10 1011.9
20260507194554 85 127 0.0 8.0 0.00 0.00 0.00 11 1012.3
20260507193057 85 314 0.0 7.0 0.00 0.00 0.00 12 1012.5
20260507191548 85 105 3.0 6.0 0.00 0.00 0.00 11 1012.8
20260507190046 85 103 5.0 9.0 0.00 0.00 0.00 11 1013.0
20260507184544 84 158 2.0 7.0 0.00 0.00 0.00 11 1013.3
20260507183042 83 86 3.0 8.0 0.00 0.00 0.00 11 1013.4
20260507181537 82 137 4.0 8.0 0.00 0.00 0.00 13 1013.7
20260507180037 81 110 5.0 8.0 0.00 0.00 0.00 13 1013.8
20260507174538 81 167 4.0 7.0 0.00 0.00 0.00 13 1014.0
20260507173034 81 107 4.0 7.0 0.00 0.00 0.00 13 1014.2
20260507171532 80 120 4.0 7.0 0.00 0.00 0.00 14 1014.3
20260507170028 79 89 4.0 8.0 0.00 0.00 0.00 14 1014.3
20260507164528 79 117 3.0 7.0 0.00 0.00 0.00 15 1014.4
20260507163027 79 101 3.0 8.0 0.00 0.00 0.00 15 1014.6
20260507161526 79 192 1.0 6.0 0.00 0.00 0.00 16 1014.7
20260507160023 77 283 0.0 3.0 0.00 0.00 0.00 17 1014.8
20260507154522 76 321 0.0 3.0 0.00 0.00 0.00 18 1014.8
20260507153015 75 319 2.0 5.0 0.00 0.00 0.00 19 1015.0
20260507151513 74 321 1.0 5.0 0.00 0.00 0.00 20 1015.1
20260507150011 72 301 2.0 6.0 0.00 0.00 0.00 21 1015.1
20260507144505 71 308 1.0 7.0 0.00 0.00 0.00 22 1015.1
20260507143002 70 310 2.0 6.0 0.00 0.00 0.00 22 1015.1
20260507141603 69 300 0.0 3.0 0.00 0.00 0.00 23 1015.2
20260507140116 66 291 0.0 3.0 0.00 0.00 0.00 27 1015.1
20260507134556 64 317 0.0 4.0 0.00 0.00 0.00 27 1015.1
20260507133054 62 312 2.0 5.0 0.00 0.00 0.00 28 1015.0
20260507131603 61 307 0.0 2.0 0.00 0.00 0.00 28 1014.7
20260507130100 61 310 0.0 3.0 0.00 0.00 0.00 28 1014.6
20260507124603 61 307 0.0 1.0 0.00 0.00 0.00 27 1014.5
20260507123056 62 295 0.0 3.0 0.00 0.00 0.00 25 1014.4
20260507121548 62 299 0.0 2.0 0.00 0.00 0.00 23 1014.3
20260507120046 63 300 0.0 3.0 0.00 0.00 0.00 23 1014.5
20260507114547 63 295 0.0 1.0 0.00 0.00 0.00 24 1014.4
20260507113043 62 294 0.0 3.0 0.00 0.00 0.00 24 1014.4
20260507111545 62 304 0.0 0.0 0.00 0.00 0.00 26 1014.3
20260507110039 63 304 0.0 0.0 0.00 0.00 0.00 25 1014.4
20260507104540 63 304 0.0 2.0 0.00 0.00 0.00 25 1014.4
20260507103036 63 239 0.0 0.0 0.00 0.00 0.00 26 1014.3
20260507101544 63 238 0.0 0.0 0.00 0.00 0.00 28 1014.3
20260507100035 64 238 0.0 1.0 0.00 0.00 0.00 29 1014.2
20260507094531 65 238 0.0 0.0 0.00 0.00 0.00 29 1014.2
20260507093037 66 238 0.0 0.0 0.00 0.00 0.00 26 1014.1
20260507091528 68 223 0.0 0.0 0.00 0.00 0.00 22 1014.1
20260507090031 68 212 0.0 2.0 0.00 0.00 0.00 24 1014.1
20260507084525 68 197 0.0 0.0 0.00 0.00 0.00 26 1014.1
20260507083035 67 217 0.0 1.0 0.00 0.00 0.00 28 1014.1
20260507081528 66 268 0.0 0.0 0.00 0.00 0.00 31 1014.1
20260507080021 65 302 0.0 0.0 0.00 0.00 0.00 31 1014.1
20260507074527 65 302 0.0 0.0 0.00 0.00 0.00 30 1014.2
20260507073016 66 302 0.0 0.0 0.00 0.00 0.00 29 1014.1
20260507071513 67 302 0.0 0.0 0.00 0.00 0.00 28 1013.9
20260507070013 68 301 0.0 0.0 0.00 0.00 0.00 27 1013.8
20260507064510 68 304 0.0 0.0 0.00 0.00 0.00 28 1013.7
20260507063009 68 342 0.0 0.0 0.00 0.00 0.00 29 1013.6
20260507061509 70 281 0.0 0.0 0.00 0.00 0.00 27 1013.5
20260507060011 70 281 0.0 0.0 0.00 0.00 0.00 27 1013.3
20260507054510 71 281 0.0 0.0 0.00 0.00 0.00 27 1013.2
20260507053008 71 281 0.0 0.0 0.00 0.00 0.00 26 1013.0
20260507051507 71 281 0.0 0.0 0.00 0.00 0.00 26 1012.9
20260507050010 72 281 0.0 0.0 0.00 0.00 0.00 25 1012.8
20260507044507 73 135 0.0 0.0 0.00 0.00 0.00 25 1012.7
20260507043007 73 134 0.0 0.0 0.00 0.00 0.00 27 1012.6
20260507041505 73 134 0.0 0.0 0.00 0.00 0.00 27 1012.5
20260507040005 71 134 0.0 0.0 0.00 0.00 0.00 27 1012.3
20260507034504 73 134 0.0 0.0 0.00 0.00 0.00 24 1012.1
20260507033003 77 134 0.0 0.0 0.00 0.00 0.00 22 1011.9
20260507031502 77 134 0.0 0.0 0.00 0.00 0.00 21 1011.8
20260507030002 79 135 0.0 0.0 0.00 0.00 0.00 20 1011.6
20260507024502 80 125 0.0 2.0 0.00 0.00 0.00 20 1011.2
20260507023100 80 106 0.0 4.0 0.00 0.00 0.00 19 1011.1
20260507021602 81 133 0.0 4.0 0.00 0.00 0.00 18 1011.0
20260507020104 82 110 1.0 7.0 0.00 0.00 0.00 18 1010.9
20260507014608 83 142 3.0 6.0 0.00 0.00 0.00 18 1011.0
20260507013057 83 127 1.0 7.0 0.00 0.00 0.00 17 1010.9
20260507011604 83 115 0.0 7.0 0.00 0.00 0.00 17 1010.9
20260507010057 83 126 6.0 10.0 0.00 0.00 0.00 17 1010.9
20260507004555 83 203 3.0 8.0 0.00 0.00 0.00 17 1011.0
20260507003053 83 165 1.0 6.0 0.00 0.00 0.00 17 1011.2
20260507001612 83 121 4.0 9.0 0.00 0.00 0.00 18 1011.0
20260507000059 83 76 1.0 7.0 0.00 0.00 0.00 17 1011.1